Sturgis, MI

5:17 AM EST on December 11, 2017 (GMT -0500)
Kirsch Municipal

Weather History for KIRS - December, 2013

Change the Weather History Date:

Wednesday, December 11, 2013

  Actual Average (KHAI) Record (KHAI)
Temperature  
Mean Temperature 16 °F -  
Max Temperature 21 °F 36 °F 58 °F (1949)
Min Temperature 10 °F 22 °F -2 °F (1958)
Degree Days  
Heating Degree Days 50    
Moisture  
Dew Point 11 °F    
Average Humidity 82    
Maximum Humidity 93    
Minimum Humidity 68    
Precipitation  
Precipitation 0.00 in - - ()
Sea Level Pressure  
Sea Level Pressure 30.30 in    
Wind  
Wind Speed 9 mph (West)    
Max Wind Speed 15 mph    
Max Gust Speed 24 mph    
Visibility 7 miles    
Events Snow    
Averages and records for this station are not official NWS values.
T = Trace of Precipitation, MM = Missing Value Source: NWS Daily Summary

Daily Weather History Graph

Daily Weather History Graph

Search for Another Location

Airport or City:

Trip Planner

Search our weather history database for the weather conditions in past years. The results will help you decide how hot, cold, wet, or windy it might be!

Date:

Astronomy

Dec. 11, 2013 Rise Set
Actual Time 7:59 AM EST 5:11 PM EST
Civil Twilight 7:27 AM EST 5:42 PM EST
Nautical Twilight 6:52 AM EST 6:17 PM EST
Astronomical Twilight 6:18 AM EST 6:51 PM EST
Moon 1:48 PM EST 2:15 AM EST
Length of Visible Light 10h 14m
Length of Day
9h 11m
Waxing Gibbous, 71% of the Moon is Illuminated
Dec 11
Waxing Gibbous
Dec 17
Full
Dec 25
Last Quarter
Jan 1
New
Jan 7
First Quarter

Hourly Weather History & Observations

Time (EST) Temp. Windchill Dew Point Humidity Pressure Visibility Wind Dir Wind Speed Gust Speed Precip Events Conditions
12:14 AM 17.6 °F 4.3 °F 8.6 °F 68% 30.22 in 10.0 mi WSW 12.7 mph - N/A   Overcast
12:35 AM 15.8 °F 0.9 °F 8.6 °F 73% 30.23 in 10.0 mi WSW 15.0 mph 19.6 mph N/A   Overcast
12:55 AM 15.8 °F 3.4 °F 8.6 °F 73% 30.22 in 10.0 mi WSW 10.4 mph - N/A   Overcast
1:14 AM 15.8 °F 4.2 °F 8.6 °F 73% 30.22 in 10.0 mi WSW 9.2 mph - N/A   Overcast
1:35 AM 15.8 °F 5.1 °F 8.6 °F 73% 30.23 in 10.0 mi WSW 8.1 mph - N/A   Mostly Cloudy
1:55 AM 15.8 °F 4.2 °F 8.6 °F 73% 30.23 in 10.0 mi WSW 9.2 mph - N/A   Overcast
2:14 AM 15.8 °F 4.2 °F 8.6 °F 73% 30.22 in 10.0 mi WSW 9.2 mph - N/A   Mostly Cloudy
2:35 AM 15.8 °F 4.2 °F 8.6 °F 73% 30.23 in 10.0 mi WSW 9.2 mph - N/A   Scattered Clouds
2:55 AM 15.8 °F 4.2 °F 8.6 °F 73% 30.23 in 10.0 mi WSW 9.2 mph - N/A   Mostly Cloudy
3:15 AM 15.8 °F 5.1 °F 8.6 °F 73% 30.24 in 10.0 mi WSW 8.1 mph - N/A   Overcast
3:35 AM 15.8 °F 4.2 °F 8.6 °F 73% 30.24 in 10.0 mi WSW 9.2 mph - N/A   Overcast
3:54 AM 15.8 °F 4.2 °F 8.6 °F 73% 30.25 in 10.0 mi WSW 9.2 mph - N/A   Overcast
4:15 AM 15.8 °F 6.1 °F 8.6 °F 73% 30.23 in 10.0 mi WSW 6.9 mph - N/A   Overcast
4:35 AM 15.8 °F 5.1 °F 10.4 °F 79% 30.23 in 10.0 mi WSW 8.1 mph - N/A   Scattered Clouds
4:54 AM 15.8 °F 5.1 °F 10.4 °F 79% 30.23 in 10.0 mi WSW 8.1 mph - N/A   Clear
5:15 AM 15.8 °F 6.1 °F 10.4 °F 79% 30.23 in 10.0 mi SW 6.9 mph - N/A   Scattered Clouds
5:35 AM 15.8 °F 6.1 °F 10.4 °F 79% 30.23 in 10.0 mi SW 6.9 mph - N/A   Overcast
5:54 AM 15.8 °F 4.2 °F 12.2 °F 86% 30.23 in 5.0 mi SW 9.2 mph - N/A Snow Light Snow
6:15 AM 15.8 °F 4.2 °F 12.2 °F 86% 30.23 in 2.5 mi SW 9.2 mph - N/A Snow Light Snow
6:35 AM 15.8 °F 4.2 °F 14.0 °F 93% 30.23 in 3.0 mi SW 9.2 mph - N/A Snow Light Snow
6:54 AM 15.8 °F 5.1 °F 14.0 °F 93% 30.23 in 3.0 mi SW 8.1 mph - N/A Snow Light Snow
7:15 AM 15.8 °F 5.1 °F 14.0 °F 93% 30.23 in 3.0 mi SW 8.1 mph - N/A Snow Light Snow
7:35 AM 15.8 °F 4.2 °F 14.0 °F 93% 30.24 in 2.5 mi SW 9.2 mph - N/A Snow Light Snow
7:54 AM 15.8 °F 4.2 °F 14.0 °F 93% 30.25 in 2.5 mi SW 9.2 mph - N/A Snow Light Snow
8:59 AM 17.6 °F 7.3 °F 15.8 °F 93% 30.28 in 0.8 mi WSW 8.1 mph - N/A Snow Light Snow
9:15 AM 17.6 °F 8.2 °F 15.8 °F 93% 30.28 in 1.0 mi WSW 6.9 mph - N/A Snow Light Snow
9:35 AM 17.6 °F 7.3 °F 15.8 °F 93% 30.28 in 2.0 mi WSW 8.1 mph - N/A Snow Light Snow
9:54 AM 17.6 °F 7.3 °F 15.8 °F 93% 30.29 in 1.2 mi WSW 8.1 mph - N/A Snow Light Snow
10:15 AM 17.6 °F 9.3 °F 15.8 °F 93% 30.29 in 1.8 mi WSW 5.8 mph - N/A Snow Light Snow
10:35 AM 19.4 °F 8.6 °F 15.8 °F 86% 30.29 in 1.2 mi WSW 9.2 mph - N/A Snow Light Snow
10:55 AM 19.4 °F 7.2 °F 15.8 °F 86% 30.30 in 1.8 mi West 11.5 mph - N/A Snow Light Snow
11:15 AM 19.4 °F 7.2 °F 15.8 °F 86% 30.29 in 1.5 mi WSW 11.5 mph - N/A Snow Light Snow
11:34 AM 19.4 °F 7.2 °F 17.6 °F 93% 30.28 in 2.0 mi West 11.5 mph - N/A Snow Light Snow
11:55 AM 19.4 °F 8.6 °F 17.6 °F 93% 30.28 in 3.0 mi West 9.2 mph - N/A Snow Light Snow
12:15 PM 21.2 °F 10.9 °F 17.6 °F 86% 30.27 in 2.5 mi West 9.2 mph - N/A Snow Light Snow
12:34 PM 21.2 °F 10.1 °F 17.6 °F 86% 30.26 in 3.0 mi West 10.4 mph - N/A Snow Light Snow
12:55 PM 21.2 °F 11.7 °F 17.6 °F 86% 30.25 in 3.0 mi West 8.1 mph - N/A Snow Light Snow
1:15 PM 21.2 °F 10.1 °F 17.6 °F 86% 30.25 in 7.0 mi WNW 10.4 mph - N/A   Overcast
1:34 PM 21.2 °F 13.6 °F 17.6 °F 86% 30.25 in 1.0 mi West 5.8 mph - N/A Snow Light Snow
1:55 PM 21.2 °F 10.1 °F 17.6 °F 86% 30.25 in 0.5 mi NW 10.4 mph - N/A Snow Snow
2:15 PM 21.2 °F 9.5 °F 17.6 °F 86% 30.26 in 1.5 mi NNW 11.5 mph 19.6 mph N/A Snow Light Snow
2:34 PM 19.4 °F 7.9 °F 15.8 °F 86% 30.26 in 2.5 mi NW 10.4 mph 16.1 mph N/A Snow Light Snow
2:55 PM 19.4 °F 7.2 °F 15.8 °F 86% 30.27 in 2.5 mi NNW 11.5 mph - N/A Snow Light Snow
3:15 PM 19.4 °F 6.0 °F 14.0 °F 80% 30.28 in 2.0 mi NNW 13.8 mph 21.9 mph N/A Snow Light Snow
3:34 PM 17.6 °F 5.7 °F 12.2 °F 79% 30.30 in 7.0 mi NW 10.4 mph 23.0 mph N/A Snow Light Snow
3:55 PM 17.6 °F 3.2 °F 12.2 °F 79% 30.30 in 5.0 mi NW 15.0 mph 24.2 mph N/A Snow Light Snow
4:15 PM 17.6 °F 5.0 °F 10.4 °F 73% 30.32 in 7.0 mi NW 11.5 mph - N/A Snow Light Snow
4:34 PM 17.6 °F 3.7 °F 10.4 °F 73% 30.33 in 10.0 mi NNW 13.8 mph 24.2 mph N/A Snow Light Snow
4:55 PM 15.8 °F 2.7 °F 8.6 °F 73% 30.34 in 10.0 mi NW 11.5 mph 19.6 mph N/A   Mostly Cloudy
5:15 PM 15.8 °F 7.2 °F 8.6 °F 73% 30.35 in 10.0 mi NW 5.8 mph - N/A   Scattered Clouds
5:34 PM 15.8 °F 2.7 °F 6.8 °F 68% 30.36 in 10.0 mi WNW 11.5 mph 16.1 mph N/A   Scattered Clouds
5:55 PM 14.0 °F 5.1 °F 6.8 °F 73% 30.36 in 10.0 mi WNW 5.8 mph - N/A   Scattered Clouds
6:14 PM 12.2 °F 1.7 °F 6.8 °F 79% 30.37 in 10.0 mi WNW 6.9 mph - N/A   Scattered Clouds
6:35 PM 12.2 °F 1.7 °F 6.8 °F 79% 30.38 in 10.0 mi West 6.9 mph - N/A   Mostly Cloudy
6:55 PM 12.2 °F 0.7 °F 6.8 °F 79% 30.39 in 10.0 mi WNW 8.1 mph - N/A   Mostly Cloudy
7:15 PM 12.2 °F 2.9 °F 6.8 °F 79% 30.40 in 10.0 mi West 5.8 mph - N/A   Clear
7:35 PM 10.4 °F 4.0 °F 6.8 °F 85% 30.40 in 10.0 mi West 3.5 mph - N/A   Scattered Clouds
7:55 PM 10.4 °F 2.2 °F 6.8 °F 85% 30.40 in 10.0 mi West 4.6 mph - N/A   Overcast
8:15 PM 12.2 °F 1.7 °F 6.8 °F 79% 30.41 in 10.0 mi WNW 6.9 mph - N/A   Overcast
8:35 PM 12.2 °F 2.9 °F 6.8 °F 79% 30.41 in 10.0 mi West 5.8 mph - N/A   Overcast
8:55 PM 12.2 °F 1.7 °F 8.6 °F 85% 30.42 in 5.0 mi West 6.9 mph - N/A Snow Light Snow
9:15 PM 12.2 °F 2.9 °F 8.6 °F 85% 30.43 in 10.0 mi West 5.8 mph - N/A   Overcast
9:35 PM 12.2 °F 2.9 °F 6.8 °F 79% 30.42 in 10.0 mi West 5.8 mph - N/A Snow Light Snow
9:55 PM 10.4 °F -0.4 °F 6.8 °F 85% 30.42 in 10.0 mi West 6.9 mph - N/A   Overcast
10:15 PM 10.4 °F -0.4 °F 6.8 °F 85% 30.43 in 10.0 mi WSW 6.9 mph - N/A   Mostly Cloudy
10:35 PM 10.4 °F 0.8 °F 6.8 °F 85% 30.43 in 10.0 mi West 5.8 mph - N/A   Overcast
10:55 PM 10.4 °F 2.2 °F 6.8 °F 85% 30.43 in 10.0 mi West 4.6 mph - N/A Snow Light Snow
11:15 PM 10.4 °F 2.2 °F 5.0 °F 79% 30.42 in 10.0 mi WNW 4.6 mph - N/A   Overcast
11:35 PM 10.4 °F 4.0 °F 5.0 °F 79% 30.41 in 10.0 mi WNW 3.5 mph - N/A   Mostly Cloudy
11:55 PM 10.4 °F 2.2 °F 5.0 °F 79% 30.42 in 10.0 mi West 4.6 mph - N/A Snow Light Snow